YAOGAN-43 01E

Last updated on Mon Sep 16 2024 00:02:03 GMT+0000 (Coordinated Universal Time)

1 60462U 24148E 24259.29978313 .00038408 00000+0 16077-2 0 9996 2 60462 34.9933 226.5346 0009347 187.9824 172.0743 15.22537160 4528
UTC large
Height (km)
Speed (km/s)
/
Latitude / Longitude
Inclination (degrees)
Orbital Period (minutes)
Azimuth
Elevation
Range (km)
Doppler Factor

Next 0 passes for location: London (51.5072 / 0.1276)

Sorry there are no passes over London.
YAOGAN-43 01E